Total_Precipitation_Accumulation
2.18 2.09 3.01 3.05 2.55 2.02 1.88 1.88 1.70 1.54 1.54 1.51 1.32 1.22 1.17 1.09 0.92 0.79 0.72 0.66 0.67 0.67 0.73 0.70 0.69 0.77 0.84 0.82 0.73 0.91 0.98 0.87 0.77 0.75 0.89 1.04 1.14 1.29 1.49 1.74 2.08 2.31 2.04
1.80 1.78 2.82 3.00 2.52 2.00 1.74 1.72 1.68 1.55 1.58 1.47 1.41 1.29 1.23 1.09 0.93 0.80 0.68 0.66 0.67 0.68 0.67 0.69 0.73 0.72 0.78 0.87 0.85 0.97 0.97 0.81 0.68 0.73 1.04 1.30 1.28 1.31 1.46 1.57 1.96 2.21 2.01
1.42 1.48 2.18 2.77 2.49 2.02 1.73 1.63 1.65 1.58 1.64 1.57 1.51 1.35 1.26 1.13 1.00 0.85 0.76 0.80 0.80 0.73 0.68 0.67 0.76 0.78 0.79 0.96 0.93 0.92 0.88 0.79 0.75 0.95 1.44 2.14 1.73 1.36 1.43 1.49 1.75 1.68 1.72
1.31 1.37 1.65 2.29 2.17 1.78 1.58 1.57 1.68 1.64 1.72 1.63 1.46 1.30 1.19 1.18 1.11 1.00 0.94 1.02 0.82 0.73 0.70 0.71 0.79 0.86 0.83 0.95 0.91 0.85 0.81 0.86 1.01 1.14 1.56 2.06 2.12 1.62 1.56 1.68 1.71 1.62 1.68
1.28 1.34 1.79 2.28 2.05 1.78 1.59 1.66 1.73 1.74 1.74 1.55 1.33 1.16 1.17 1.20 1.18 1.17 1.17 1.11 0.85 0.76 0.70 0.70 0.79 0.83 0.84 0.90 0.85 0.81 0.78 0.90 1.16 1.25 1.53 1.88 2.28 1.98 1.62 1.69 1.73 1.67 1.80
1.29 1.35 1.69 2.14 2.00 1.78 1.61 1.69 1.74 1.80 1.78 1.67 1.42 1.19 1.19 1.20 1.19 1.16 1.22 1.08 0.95 0.84 0.73 0.73 0.79 0.85 0.85 0.88 0.89 0.83 0.85 0.96 1.05 1.28 1.58 1.96 2.17 1.92 1.58 1.64 1.74 1.89 1.91
1.20 1.22 1.40 1.84 1.88 1.73 1.64 1.79 1.86 1.88 1.93 1.86 1.58 1.37 1.28 1.20 1.19 1.20 1.25 1.11 1.02 0.94 0.88 0.87 0.89 0.90 0.87 0.91 0.86 0.83 0.81 0.83 0.87 1.13 1.39 1.94 1.99 1.77 1.61 1.64 1.65 1.75 1.85
1.31 1.20 1.15 1.56 1.73 1.68 1.67 1.74 1.81 1.84 1.85 1.83 1.58 1.41 1.30 1.20 1.15 1.24 1.30 1.15 1.08 0.96 0.90 0.92 0.94 0.98 0.95 0.93 0.90 0.87 0.83 0.70 0.70 0.91 1.20 1.70 1.91 1.83 1.67 1.70 1.79 1.75 1.83
1.48 1.40 1.22 1.28 1.46 1.68 1.76 1.74 1.69 1.65 1.68 1.73 1.50 1.36 1.24 1.17 1.09 1.14 1.20 1.12 1.10 1.08 1.04 0.99 1.03 1.06 0.97 0.98 0.98 0.93 0.88 0.73 0.76 0.91 0.95 1.50 1.86 1.83 1.62 1.63 1.82 1.91 1.92
1.67 1.52 1.29 1.22 1.28 1.32 1.47 1.60 1.70 1.72 1.68 1.72 1.49 1.29 1.19 1.11 1.00 1.04 1.01 1.00 1.08 1.17 1.25 1.22 1.19 1.12 1.10 1.03 0.98 0.92 0.86 0.69 0.77 0.82 1.05 1.37 1.81 1.89 1.69 1.51 1.50 1.55 1.63
1.39 1.29 1.33 1.33 1.32 1.34 1.28 1.35 1.59 1.69 1.69 1.56 1.43 1.28 1.12 0.88 0.77 0.84 0.86 1.08 1.20 1.35 1.42 1.43 1.37 1.29 1.17 1.02 0.96 0.86 0.72 0.68 0.80 0.88 1.20 1.51 1.87 1.96 1.72 1.43 1.36 1.30 1.38
1.03 1.00 1.08 1.14 1.29 1.32 1.19 1.40 1.65 1.49 1.39 1.16 1.16 1.00 0.96 0.89 0.84 0.70 0.81 1.13 1.29 1.34 1.34 1.43 1.50 1.30 1.01 0.76 0.73 0.68 0.59 0.58 0.64 0.76 1.16 1.70 1.96 1.99 1.79 1.53 1.37 1.32 1.41
0.88 0.85 0.84 0.91 1.02 1.12 1.27 1.51 1.78 1.83 1.63 1.40 1.17 1.06 1.01 0.89 0.79 0.74 0.76 0.86 0.97 1.03 0.96 1.01 1.02 0.87 0.77 0.71 0.69 0.57 0.55 0.55 0.60 0.73 1.24 1.73 1.96 2.03 1.84 1.70 1.64 1.57 1.54
0.72 0.82 0.68 0.60 0.78 0.95 1.06 1.19 1.45 1.52 1.44 1.32 1.12 1.01 1.06 1.00 0.88 0.86 0.83 0.86 0.88 0.88 0.97 0.97 1.01 0.95 0.78 0.69 0.67 0.67 0.63 0.60 0.65 0.84 1.23 1.59 1.92 2.10 2.00 1.93 1.90 1.78 1.69
0.72 0.80 0.73 0.62 0.63 0.70 0.76 0.87 0.99 1.16 1.26 1.26 1.19 1.00 0.99 1.00 0.95 0.94 0.87 0.89 0.80 0.79 0.89 0.97 1.00 1.01 0.92 0.78 0.72 0.72 0.77 0.70 0.69 0.78 1.03 1.35 1.79 2.16 2.27 2.10 1.92 1.84 1.81
0.64 0.77 0.77 0.68 0.66 0.68 0.66 0.67 0.68 0.83 0.99 1.11 1.11 1.01 1.04 1.04 0.96 0.99 0.95 0.94 0.90 0.83 0.87 1.07 1.03 1.06 1.03 0.94 0.78 0.76 0.78 0.74 0.71 0.74 0.88 1.16 1.40 1.66 2.03 2.29 2.14 1.94 1.80
0.60 0.66 0.73 0.72 0.75 0.78 0.74 0.73 0.61 0.65 0.74 0.88 1.00 1.01 1.07 1.01 0.91 0.95 0.95 0.91 0.90 0.92 0.95 1.02 1.04 1.09 0.99 0.93 0.89 0.83 0.78 0.74 0.65 0.72 0.74 0.86 0.91 1.13 1.50 1.86 2.10 2.07 1.98
0.67 0.71 0.78 0.80 0.83 0.85 0.84 0.85 0.79 0.82 0.88 0.92 1.05 1.01 0.98 1.04 1.00 0.99 1.00 1.00 1.03 1.08 1.07 1.09 1.15 1.14 1.08 1.09 1.07 1.03 0.84 0.83 0.74 0.73 0.73 0.76 0.84 0.81 0.97 1.16 1.47 1.74 1.96
0.61 0.64 0.70 0.80 0.82 0.83 0.85 0.93 1.05 1.10 1.11 1.09 1.13 1.08 0.99 0.99 1.03 1.13 1.16 1.20 1.17 1.20 1.22 1.19 1.22 1.13 1.14 1.17 1.10 1.10 0.98 0.93 0.87 0.74 0.80 0.84 0.85 0.79 0.83 0.74 0.82 0.98 1.31
0.50 0.54 0.59 0.66 0.82 0.96 0.99 0.99 1.13 1.20 1.27 1.36 1.41 1.29 1.16 1.19 1.31 1.47 1.55 1.47 1.46 1.47 1.47 1.44 1.50 1.39 1.25 1.28 1.17 1.13 1.02 0.90 0.94 0.91 0.88 0.87 0.91 0.88 0.81 0.71 0.68 0.59 0.72
0.35 0.40 0.47 0.53 0.70 0.83 0.89 0.99 1.18 1.36 1.53 1.68 1.79 1.68 1.54 1.50 1.68 1.81 1.74 1.82 1.84 1.73 1.74 1.80 1.86 1.80 1.59 1.46 1.51 1.40 1.12 0.87 0.93 0.90 0.86 0.90 0.95 1.05 1.08 0.95 0.81 0.72 0.68
0.23 0.27 0.33 0.40 0.50 0.63 0.79 1.02 1.22 1.52 1.61 1.70 1.82 1.86 1.79 1.73 1.89 1.94 2.02 2.11 2.16 2.16 2.10 2.01 2.14 2.26 1.99 1.73 1.83 2.11 1.72 1.32 0.96 0.76 0.82 0.86 0.96 1.19 1.27 1.09 0.90 0.82 0.80
0.18 0.19 0.26 0.38 0.50 0.71 0.95 1.27 1.56 1.81 1.89 1.93 1.87 1.92 2.00 2.04 2.11 2.15 2.20 2.28 2.31 2.16 2.17 2.27 2.41 2.74 2.54 2.17 1.96 2.21 2.03 1.70 1.40 0.97 0.87 0.91 0.99 1.16 1.29 1.31 1.19 1.12 1.02
0.17 0.22 0.34 0.51 0.70 0.96 1.29 1.65 1.89 2.13 2.23 2.08 2.05 2.08 2.08 2.03 2.06 2.18 2.18 2.18 2.16 2.11 2.18 2.25 2.31 2.71 2.90 2.61 2.27 1.89 1.67 1.64 1.70 1.42 1.04 0.98 1.06 1.07 1.18 1.27 1.22 1.28 1.26
0.30 0.38 0.54 0.79 1.09 1.37 1.60 1.78 1.98 2.11 2.14 2.11 2.06 2.05 1.99 1.95 1.93 1.96 1.97 2.06 2.10 2.15 2.20 2.37 2.49 2.75 2.78 2.77 2.58 2.37 2.15 1.84 1.50 1.55 1.49 1.22 1.17 1.08 1.17 1.30 1.35 1.42 1.45
0.47 0.61 0.79 0.98 1.27 1.45 1.56 1.67 1.85 2.00 2.05 2.05 2.02 2.02 2.02 2.00 1.90 1.84 1.81 1.88 2.01 2.17 2.22 2.31 2.46 2.70 2.82 2.90 2.81 2.54 2.45 2.28 1.98 1.84 1.59 1.44 1.44 1.23 1.20 1.24 1.28 1.42 1.56